Time,TemperatureF,DewpointF,PressureIn,WindDirection,WindDirectionDegrees,WindSpeedMPH,WindSpeedGustMPH,Humidity,HourlyPrecipIn,Conditions,Clouds,dailyrainin,SoftwareType,DateUTC
2013-02-15 00:01:00,38.8,37.2,30.08,NNW,329,0.0,0.0,94,0.00,,CLR,0.00,VWS V13.01,2013-02-15 06:01:00,
2013-02-15 00:06:00,38.8,37.2,30.08,NNW,329,0.0,0.0,94,0.00,,CLR,0.00,VWS V13.01,2013-02-15 06:06:00,
2013-02-15 00:11:00,38.8,37.2,30.08,NNW,329,0.0,0.0,94,0.00,,CLR,0.00,VWS V13.01,2013-02-15 06:11:00,
2013-02-15 00:16:00,38.7,37.1,30.08,NNW,329,0.0,0.0,94,0.00,,CLR,0.00,VWS V13.01,2013-02-15 06:16:00,
2013-02-15 00:21:00,38.6,37.3,30.08,NNW,329,0.0,0.0,95,0.00,,CLR,0.00,VWS V13.01,2013-02-15 06:21:00,
2013-02-15 00:26:00,38.5,37.2,30.08,NNW,329,0.0,0.0,95,0.00,,CLR,0.00,VWS V13.01,2013-02-15 06:26:00,
2013-02-15 00:31:00,38.4,37.1,30.08,NNW,329,0.0,0.0,95,0.00,,CLR,0.00,VWS V13.01,2013-02-15 06:31:00,
2013-02-15 00:36:00,38.3,37.0,30.08,NNW,329,0.0,0.0,95,0.00,,CLR,0.00,VWS V13.01,2013-02-15 06:36:00,
2013-02-15 00:41:00,38.3,37.0,30.08,NNW,329,0.0,0.0,95,0.00,,CLR,0.00,VWS V13.01,2013-02-15 06:41:00,
2013-02-15 00:46:00,38.3,37.0,30.08,NNW,329,0.0,0.0,95,0.00,,CLR,0.00,VWS V13.01,2013-02-15 06:46:00,
2013-02-15 00:51:00,38.3,37.0,30.08,NNW,329,0.0,0.0,95,0.00,,CLR,0.00,VWS V13.01,2013-02-15 06:51:00,
2013-02-15 00:56:00,38.3,37.0,30.08,NNW,329,0.0,0.0,95,0.00,,CLR,0.00,VWS V13.01,2013-02-15 06:56:00,
2013-02-15 01:01:00,38.2,36.9,30.08,NNW,329,0.0,0.0,95,0.00,,CLR,0.00,VWS V13.01,2013-02-15 07:01:00,
2013-02-15 01:07:00,38.1,36.8,30.08,NNW,329,0.0,0.0,95,0.00,,CLR,0.00,VWS V13.01,2013-02-15 07:07:00,
2013-02-15 01:12:00,38.0,36.7,30.08,NNW,329,0.0,0.0,95,0.00,,CLR,0.00,VWS V13.01,2013-02-15 07:12:00,
2013-02-15 01:17:00,37.9,36.6,30.08,NNW,329,0.0,0.0,95,0.00,,CLR,0.00,VWS V13.01,2013-02-15 07:17:00,
2013-02-15 01:22:00,37.9,36.6,30.08,NNW,329,0.0,0.0,95,0.00,,CLR,0.00,VWS V13.01,2013-02-15 07:22:00,
2013-02-15 01:27:00,37.8,36.5,30.08,NNW,329,0.0,0.0,95,0.00,,CLR,0.00,VWS V13.01,2013-02-15 07:27:00,
2013-02-15 01:32:00,37.8,36.5,30.08,NNW,329,0.0,0.0,95,0.00,,CLR,0.00,VWS V13.01,2013-02-15 07:32:00,
2013-02-15 01:37:00,37.9,36.6,30.08,NNW,329,0.0,0.0,95,0.00,,CLR,0.00,VWS V13.01,2013-02-15 07:37:00,
2013-02-15 01:42:00,37.8,36.5,30.08,NNW,329,0.0,0.0,95,0.00,,CLR,0.00,VWS V13.01,2013-02-15 07:42:00,
2013-02-15 01:47:00,37.7,36.4,30.08,NNW,329,0.0,0.0,95,0.00,,CLR,0.00,VWS V13.01,2013-02-15 07:47:00,
2013-02-15 01:52:00,37.6,36.3,30.08,NNW,329,0.0,0.0,95,0.00,,CLR,0.00,VWS V13.01,2013-02-15 07:52:00,
2013-02-15 01:57:00,37.6,36.3,30.08,NNW,329,0.0,0.0,95,0.00,,CLR,0.00,VWS V13.01,2013-02-15 07:57:00,
2013-02-15 02:03:00,37.5,36.2,30.08,NNW,329,0.0,0.0,95,0.00,,CLR,0.00,VWS V13.01,2013-02-15 08:03:00,
2013-02-15 02:08:00,37.4,36.1,30.08,NNW,329,0.0,0.0,95,0.00,,CLR,0.00,VWS V13.01,2013-02-15 08:08:00,
2013-02-15 02:13:00,37.3,36.0,30.08,NNW,329,0.0,0.0,95,0.00,,CLR,0.00,VWS V13.01,2013-02-15 08:13:00,
2013-02-15 02:18:00,37.2,35.9,30.08,NNW,329,0.0,0.0,95,0.00,,CLR,0.00,VWS V13.01,2013-02-15 08:18:00,
2013-02-15 02:23:00,37.3,36.0,30.08,NNW,329,0.0,0.0,95,0.00,,CLR,0.00,VWS V13.01,2013-02-15 08:23:00,
2013-02-15 02:28:00,37.3,36.0,30.08,NNW,329,0.0,0.0,95,0.00,,CLR,0.00,VWS V13.01,2013-02-15 08:28:00,
2013-02-15 02:33:00,37.4,36.1,30.08,NNW,329,0.0,0.0,95,0.00,,,0.00,VWS V13.01,2013-02-15 08:33:00,
2013-02-15 02:38:00,37.4,36.1,30.08,NNW,329,0.0,0.0,95,0.00,,,0.00,VWS V13.01,2013-02-15 08:38:00,
2013-02-15 02:43:00,37.4,36.1,30.08,NNW,329,0.0,0.0,95,0.00,,,0.00,VWS V13.01,2013-02-15 08:43:00,
2013-02-15 02:48:00,37.4,36.1,30.08,NNW,329,0.0,0.0,95,0.00,,,0.00,VWS V13.01,2013-02-15 08:48:00,
2013-02-15 02:54:00,37.4,36.1,30.08,NNW,329,0.0,0.0,95,0.00,,,0.00,VWS V13.01,2013-02-15 08:54:00,
2013-02-15 02:59:00,37.4,36.1,30.08,NNW,329,0.0,0.0,95,0.00,,,0.00,VWS V13.01,2013-02-15 08:59:00,
2013-02-15 03:04:00,37.4,36.1,30.08,NNW,329,0.0,0.0,95,0.00,,,0.00,VWS V13.01,2013-02-15 09:04:00,
2013-02-15 03:09:00,37.4,36.1,30.08,NNW,329,0.0,0.0,95,0.00,,,0.00,VWS V13.01,2013-02-15 09:09:00,
2013-02-15 03:14:00,37.5,36.2,30.08,NNW,329,0.0,0.0,95,0.00,,,0.00,VWS V13.01,2013-02-15 09:14:00,
2013-02-15 03:19:00,37.5,36.2,30.08,NNW,329,0.0,0.0,95,0.00,,,0.00,VWS V13.01,2013-02-15 09:19:00,
2013-02-15 03:24:00,37.4,36.1,30.08,NNW,329,0.0,0.0,95,0.00,,,0.00,VWS V13.01,2013-02-15 09:24:00,
2013-02-15 03:29:00,37.3,36.0,30.08,NNW,329,0.0,0.0,95,0.00,,,0.00,VWS V13.01,2013-02-15 09:29:00,
2013-02-15 03:34:00,37.3,36.0,30.08,NNW,329,0.0,0.0,95,0.00,,,0.00,VWS V13.01,2013-02-15 09:34:00,
2013-02-15 03:39:00,37.3,36.0,30.08,NNW,329,0.0,0.0,95,0.00,,,0.00,VWS V13.01,2013-02-15 09:39:00,
2013-02-15 03:45:00,37.3,36.0,30.08,NNW,329,0.0,0.0,95,0.00,,,0.00,VWS V13.01,2013-02-15 09:45:00,
2013-02-15 03:50:00,37.3,36.0,30.08,NNW,329,0.0,0.0,95,0.00,,,0.00,VWS V13.01,2013-02-15 09:50:00,
2013-02-15 03:55:00,37.3,36.0,30.08,NNW,329,0.0,0.0,95,0.00,,,0.00,VWS V13.01,2013-02-15 09:55:00,
2013-02-15 04:00:00,37.3,36.0,30.08,NNW,329,0.0,0.0,95,0.00,,,0.00,VWS V13.01,2013-02-15 10:00:00,
2013-02-15 04:05:00,37.3,36.0,30.09,NNW,329,0.0,0.0,95,0.00,,,0.00,VWS V13.01,2013-02-15 10:05:00,
2013-02-15 04:10:00,37.1,35.8,30.09,NNW,329,0.0,0.0,95,0.00,,,0.00,VWS V13.01,2013-02-15 10:10:00,
2013-02-15 04:15:00,37.0,35.7,30.09,NNW,329,0.0,0.0,95,0.00,,,0.00,VWS V13.01,2013-02-15 10:15:00,
2013-02-15 04:20:00,36.9,35.6,30.09,NNW,329,0.0,0.0,95,0.00,,,0.00,VWS V13.01,2013-02-15 10:20:00,
2013-02-15 04:25:00,36.7,35.4,30.09,NNW,329,0.0,0.0,95,0.00,,,0.00,VWS V13.01,2013-02-15 10:25:00,
2013-02-15 04:30:00,36.6,35.3,30.09,NNW,329,0.0,0.0,95,0.00,,,0.00,VWS V13.01,2013-02-15 10:30:00,
2013-02-15 04:35:00,36.6,35.3,30.09,NNW,329,0.0,0.0,95,0.00,,,0.00,VWS V13.01,2013-02-15 10:35:00,
2013-02-15 04:40:00,36.6,35.3,30.09,NNW,329,0.0,0.0,95,0.00,,,0.00,VWS V13.01,2013-02-15 10:40:00,
2013-02-15 04:46:00,36.5,35.2,30.09,NNW,329,0.0,0.0,95,0.00,,,0.00,VWS V13.01,2013-02-15 10:46:00,
2013-02-15 04:51:00,36.5,35.2,30.09,NNW,329,0.0,0.0,95,0.00,,,0.00,VWS V13.01,2013-02-15 10:51:00,
2013-02-15 04:56:00,36.5,35.2,30.09,NNW,329,0.0,0.0,95,0.00,,,0.00,VWS V13.01,2013-02-15 10:56:00,
2013-02-15 05:01:00,36.5,35.5,30.09,NNW,329,0.0,0.0,96,0.00,,CLR,0.00,VWS V13.01,2013-02-15 11:01:00,
2013-02-15 05:06:00,36.4,35.4,30.09,NNW,329,0.0,0.0,96,0.00,,CLR,0.00,VWS V13.01,2013-02-15 11:06:00,
2013-02-15 05:11:00,36.4,35.1,30.09,NNW,329,0.0,0.0,95,0.00,,CLR,0.00,VWS V13.01,2013-02-15 11:11:00,
2013-02-15 05:16:00,36.3,35.0,30.09,NNW,329,0.0,0.0,95,0.00,,CLR,0.00,VWS V13.01,2013-02-15 11:16:00,
2013-02-15 05:21:00,36.1,34.8,30.09,NNW,329,0.0,0.0,95,0.00,,CLR,0.00,VWS V13.01,2013-02-15 11:21:00,
2013-02-15 05:26:00,36.1,34.8,30.10,NNW,329,0.0,0.0,95,0.00,,CLR,0.00,VWS V13.01,2013-02-15 11:26:00,
2013-02-15 05:32:00,36.1,34.8,30.10,NNW,329,0.0,0.0,95,0.00,,CLR,0.00,VWS V13.01,2013-02-15 11:32:00,
2013-02-15 05:37:00,36.0,34.7,30.11,NNW,329,0.0,0.0,95,0.00,,CLR,0.00,VWS V13.01,2013-02-15 11:37:00,
2013-02-15 05:42:00,36.0,35.0,30.10,NNW,329,0.0,0.0,96,0.00,,CLR,0.00,VWS V13.01,2013-02-15 11:42:00,
2013-02-15 05:47:00,36.3,35.3,30.11,NNW,329,0.0,0.0,96,0.00,,CLR,0.00,VWS V13.01,2013-02-15 11:47:00,
2013-02-15 05:52:00,36.6,35.6,30.11,NNW,329,0.0,0.0,96,0.00,,CLR,0.00,VWS V13.01,2013-02-15 11:52:00,
2013-02-15 05:57:00,36.8,35.8,30.11,NNW,329,0.0,0.0,96,0.00,,CLR,0.00,VWS V13.01,2013-02-15 11:57:00,
2013-02-15 06:02:00,36.8,35.8,30.10,NNW,329,0.0,0.0,96,0.00,,CLR,0.00,VWS V13.01,2013-02-15 12:02:00,
2013-02-15 06:07:00,36.8,35.8,30.11,NNW,329,0.0,0.0,96,0.00,,CLR,0.00,VWS V13.01,2013-02-15 12:07:00,
2013-02-15 06:12:00,36.7,35.7,30.12,NNW,329,0.0,0.0,96,0.00,,CLR,0.00,VWS V13.01,2013-02-15 12:12:00,
2013-02-15 06:17:00,36.6,35.6,30.12,NNW,329,0.0,0.0,96,0.00,,CLR,0.00,VWS V13.01,2013-02-15 12:17:00,
2013-02-15 06:23:00,36.6,35.6,30.12,NNW,329,0.0,0.0,96,0.00,,CLR,0.00,VWS V13.01,2013-02-15 12:23:00,
2013-02-15 06:28:00,36.6,35.6,30.12,NNW,329,0.0,0.0,96,0.00,,CLR,0.00,VWS V13.01,2013-02-15 12:28:00,
2013-02-15 06:33:00,36.5,35.5,30.12,NNW,329,0.0,0.0,96,0.00,,CLR,0.00,VWS V13.01,2013-02-15 12:33:00,
2013-02-15 06:38:00,36.6,35.6,30.12,NNW,329,0.0,0.0,96,0.00,,CLR,0.00,VWS V13.01,2013-02-15 12:38:00,
2013-02-15 06:43:00,36.6,35.6,30.12,NNW,329,0.0,0.0,96,0.00,,CLR,0.00,VWS V13.01,2013-02-15 12:43:00,
2013-02-15 06:48:00,36.6,35.6,30.12,NNW,329,0.0,0.0,96,0.00,,CLR,0.00,VWS V13.01,2013-02-15 12:48:00,
2013-02-15 06:53:00,36.6,35.6,30.12,NNW,329,0.0,0.0,96,0.00,,CLR,0.00,VWS V13.01,2013-02-15 12:53:00,
2013-02-15 06:58:00,36.6,35.6,30.13,NNW,329,0.0,0.0,96,0.00,,CLR,0.00,VWS V13.01,2013-02-15 12:58:00,
2013-02-15 07:03:00,36.8,35.8,30.13,NNW,329,0.0,0.0,96,0.00,,CLR,0.00,VWS V13.01,2013-02-15 13:03:00,
2013-02-15 07:08:00,37.0,36.0,30.13,NNW,329,0.0,0.0,96,0.00,,CLR,0.00,VWS V13.01,2013-02-15 13:08:00,
2013-02-15 07:14:00,37.3,36.3,30.13,NNW,329,0.0,0.0,96,0.00,,CLR,0.00,VWS V13.01,2013-02-15 13:14:00,
2013-02-15 07:19:00,37.9,36.9,30.13,NNW,329,0.0,0.0,96,0.00,,CLR,0.00,VWS V13.01,2013-02-15 13:19:00,
2013-02-15 07:24:00,38.5,37.5,30.13,NNW,329,0.0,0.0,96,0.00,,CLR,0.00,VWS V13.01,2013-02-15 13:24:00,
2013-02-15 07:29:00,39.2,38.2,30.13,NNW,329,0.0,0.0,96,0.00,,CLR,0.00,VWS V13.01,2013-02-15 13:29:00,
2013-02-15 07:34:00,40.0,39.0,30.13,NNW,329,0.0,0.0,96,0.00,,CLR,0.00,VWS V13.01,2013-02-15 13:34:00,
2013-02-15 07:39:00,40.7,39.7,30.14,NNW,329,0.0,0.0,96,0.00,,CLR,0.00,VWS V13.01,2013-02-15 13:39:00,
2013-02-15 07:44:00,41.5,40.5,30.14,NNW,329,0.0,0.0,96,0.00,,CLR,0.00,VWS V13.01,2013-02-15 13:44:00,
2013-02-15 07:49:00,42.1,41.0,30.13,NNW,329,0.0,0.0,96,0.00,,CLR,0.00,VWS V13.01,2013-02-15 13:49:00,
2013-02-15 07:54:00,42.9,41.8,30.13,NNW,329,0.0,0.0,96,0.00,,CLR,0.00,VWS V13.01,2013-02-15 13:54:00,
2013-02-15 08:00:00,43.6,42.8,30.14,NNW,329,0.0,1.0,97,0.00,,CLR,0.00,VWS V13.01,2013-02-15 14:00:00,
2013-02-15 08:05:00,44.4,43.3,30.14,NNW,329,0.0,1.0,96,0.00,,CLR,0.00,VWS V13.01,2013-02-15 14:05:00,
2013-02-15 08:10:00,45.1,43.8,30.14,NNW,329,0.0,1.0,95,0.00,,CLR,0.00,VWS V13.01,2013-02-15 14:10:00,
2013-02-15 08:39:00,49.7,45.4,30.14,NNW,329,0.0,1.0,85,0.00,,CLR,0.00,VWS V13.01,2013-02-15 14:39:00,
2013-02-15 08:59:00,52.5,45.5,30.15,NNW,329,0.0,3.0,77,0.00,,CLR,0.00,VWS V13.01,2013-02-15 14:59:00,
2013-02-15 09:04:00,53.2,45.5,30.15,NNW,328,0.0,4.0,75,0.00,,CLR,0.00,VWS V13.01,2013-02-15 15:04:00,
2013-02-15 09:09:00,53.9,45.8,30.15,NNW,328,0.0,4.0,74,0.00,,CLR,0.00,VWS V13.01,2013-02-15 15:09:00,
2013-02-15 09:15:00,54.6,45.8,30.15,NNW,329,0.0,4.0,72,0.00,,CLR,0.00,VWS V13.01,2013-02-15 15:15:00,
2013-02-15 09:20:00,55.2,46.0,30.16,NNW,329,0.0,2.0,71,0.00,,CLR,0.00,VWS V13.01,2013-02-15 15:20:00,
2013-02-15 09:25:00,55.8,45.8,30.16,NNW,330,3.0,4.0,69,0.00,,CLR,0.00,VWS V13.01,2013-02-15 15:25:00,
2013-02-15 09:30:00,56.3,45.9,30.15,NNW,333,0.0,4.0,68,0.00,,CLR,0.00,VWS V13.01,2013-02-15 15:30:00,
2013-02-15 09:39:00,57.6,45.9,30.15,NNW,334,0.0,3.0,65,0.00,,CLR,0.00,VWS V13.01,2013-02-15 15:39:00,
2013-02-15 10:04:00,60.1,46.2,30.15,North,355,2.0,4.0,60,0.00,,CLR,0.00,VWS V13.01,2013-02-15 16:04:00,
2013-02-15 10:10:00,60.6,45.3,30.14,North,360,0.0,6.0,57,0.00,,CLR,0.00,VWS V13.01,2013-02-15 16:10:00,
2013-02-15 10:18:00,61.0,44.7,30.14,NNE,19,0.0,8.0,55,0.00,,CLR,0.00,VWS V13.01,2013-02-15 16:18:00,
2013-02-15 10:23:00,61.1,44.3,30.14,NNE,19,0.0,8.0,54,0.00,,CLR,0.00,VWS V13.01,2013-02-15 16:23:00,
2013-02-15 10:28:00,61.5,44.7,30.14,NNE,24,0.0,8.0,54,0.00,,CLR,0.00,VWS V13.01,2013-02-15 16:28:00,
2013-02-15 10:33:00,62.0,45.2,30.14,NNE,30,0.0,1.0,54,0.00,,CLR,0.00,VWS V13.01,2013-02-15 16:33:00,
2013-02-15 10:38:00,62.4,44.6,30.14,NNE,30,0.0,3.0,52,0.00,,CLR,0.00,VWS V13.01,2013-02-15 16:38:00,
2013-02-15 10:43:00,62.7,43.3,30.14,NE,34,0.0,5.0,49,0.00,,CLR,0.00,VWS V13.01,2013-02-15 16:43:00,
2013-02-15 10:48:00,63.0,43.0,30.14,NE,34,0.0,0.0,48,0.00,,CLR,0.00,VWS V13.01,2013-02-15 16:48:00,
2013-02-15 10:54:00,63.4,43.4,30.13,NE,34,0.0,3.0,48,0.00,,CLR,0.00,VWS V13.01,2013-02-15 16:54:00,
2013-02-15 10:59:00,63.7,43.1,30.13,NE,34,1.0,3.0,47,0.00,,CLR,0.00,VWS V13.01,2013-02-15 16:59:00,
2013-02-15 11:04:00,63.8,43.8,30.13,NE,36,1.0,3.0,48,0.00,,CLR,0.00,VWS V13.01,2013-02-15 17:04:00,
2013-02-15 11:09:00,63.9,43.8,30.12,NE,42,2.0,5.0,48,0.00,,CLR,0.00,VWS V13.01,2013-02-15 17:09:00,
2013-02-15 11:14:00,64.1,42.9,30.12,NE,42,0.0,5.0,46,0.00,,CLR,0.00,VWS V13.01,2013-02-15 17:14:00,
2013-02-15 11:19:00,64.0,42.3,30.12,NE,37,0.0,4.0,45,0.00,,CLR,0.00,VWS V13.01,2013-02-15 17:19:00,
2013-02-15 11:24:00,64.1,42.9,30.11,NNE,19,1.0,5.0,46,0.00,,CLR,0.00,VWS V13.01,2013-02-15 17:24:00,
2013-02-15 11:29:00,63.9,41.6,30.11,NNE,19,0.0,5.0,44,0.00,,CLR,0.00,VWS V13.01,2013-02-15 17:29:00,
2013-02-15 11:34:00,63.5,41.8,30.10,NE,36,0.0,5.0,45,0.00,,CLR,0.00,VWS V13.01,2013-02-15 17:34:00,
2013-02-15 11:39:00,63.4,42.3,30.10,NE,38,0.0,5.0,46,0.00,,CLR,0.00,VWS V13.01,2013-02-15 17:39:00,
2013-02-15 11:44:00,63.6,43.0,30.10,ENE,64,1.0,5.0,47,0.00,,CLR,0.00,VWS V13.01,2013-02-15 17:44:00,
2013-02-15 11:50:00,63.6,43.0,30.10,ENE,64,0.0,1.0,47,0.00,,CLR,0.00,VWS V13.01,2013-02-15 17:50:00,
2013-02-15 11:55:00,63.4,42.3,30.10,ENE,65,0.0,3.0,46,0.00,,CLR,0.00,VWS V13.01,2013-02-15 17:55:00,
2013-02-15 12:00:00,63.4,42.3,30.09,ENE,72,0.0,5.0,46,0.00,,CLR,0.00,VWS V13.01,2013-02-15 18:00:00,
2013-02-15 12:05:00,63.5,42.4,30.09,ENE,68,3.0,5.0,46,0.00,,CLR,0.00,VWS V13.01,2013-02-15 18:05:00,
2013-02-15 12:10:00,63.7,42.0,30.09,ENE,63,0.0,5.0,45,0.00,,CLR,0.00,VWS V13.01,2013-02-15 18:10:00,
2013-02-15 12:15:00,63.9,41.6,30.09,NE,53,0.0,5.0,44,0.00,,CLR,0.00,VWS V13.01,2013-02-15 18:15:00,
2013-02-15 12:20:00,63.8,41.5,30.09,NNE,22,2.0,6.0,44,0.00,,CLR,0.00,VWS V13.01,2013-02-15 18:20:00,
2013-02-15 12:25:00,63.6,41.9,30.09,North,11,0.0,6.0,45,0.00,,CLR,0.00,VWS V13.01,2013-02-15 18:25:00,
2013-02-15 12:30:00,63.5,40.0,30.08,North,10,0.0,6.0,42,0.00,,CLR,0.00,VWS V13.01,2013-02-15 18:30:00,
2013-02-15 12:35:00,63.3,41.6,30.08,North,11,0.0,1.0,45,0.00,,CLR,0.00,VWS V13.01,2013-02-15 18:35:00,
2013-02-15 12:41:00,63.4,41.1,30.08,North,11,0.0,1.0,44,0.00,,CLR,0.00,VWS V13.01,2013-02-15 18:41:00,
2013-02-15 12:46:00,63.8,40.3,30.08,North,10,0.0,2.0,42,0.00,,CLR,0.00,VWS V13.01,2013-02-15 18:46:00,
2013-02-15 12:51:00,64.2,39.4,30.08,North,9,0.0,3.0,40,0.00,,CLR,0.00,VWS V13.01,2013-02-15 18:51:00,
2013-02-15 12:56:00,64.7,40.5,30.07,North,360,0.0,4.0,41,0.00,,CLR,0.00,VWS V13.01,2013-02-15 18:56:00,
2013-02-15 13:02:00,64.9,40.0,30.07,North,9,0.0,0.0,40,0.00,,CLR,0.00,VWS V13.01,2013-02-15 19:02:00,
2013-02-15 13:07:00,64.9,40.0,30.07,NE,34,0.0,4.0,40,0.00,,CLR,0.00,VWS V13.01,2013-02-15 19:07:00,
2013-02-15 13:12:00,65.0,41.4,30.06,NE,34,0.0,4.0,42,0.00,,CLR,0.00,VWS V13.01,2013-02-15 19:12:00,
2013-02-15 13:17:00,65.4,41.7,30.06,NNE,33,0.0,1.0,42,0.00,,CLR,0.00,VWS V13.01,2013-02-15 19:17:00,
2013-02-15 13:22:00,65.5,40.6,30.05,North,360,4.0,6.0,40,0.00,,CLR,0.00,VWS V13.01,2013-02-15 19:22:00,
2013-02-15 13:27:00,65.6,41.9,30.05,NNE,15,3.0,9.0,42,0.00,,CLR,0.00,VWS V13.01,2013-02-15 19:27:00,
2013-02-15 13:32:00,65.9,40.9,30.05,NNE,15,0.0,1.0,40,0.00,,CLR,0.00,VWS V13.01,2013-02-15 19:32:00,
2013-02-15 13:37:00,66.3,41.9,30.05,NNE,29,0.0,7.0,41,0.00,,CLR,0.00,VWS V13.01,2013-02-15 19:37:00,
2013-02-15 13:42:00,66.6,40.9,30.05,NNE,29,1.0,7.0,39,0.00,,CLR,0.00,VWS V13.01,2013-02-15 19:42:00,
2013-02-15 13:47:00,66.7,41.6,30.05,NNE,30,0.0,3.0,40,0.00,,CLR,0.00,VWS V13.01,2013-02-15 19:47:00,
2013-02-15 13:53:00,66.8,41.1,30.05,NNE,25,0.0,4.0,39,0.00,,CLR,0.00,VWS V13.01,2013-02-15 19:53:00,
2013-02-15 13:58:00,66.6,39.5,30.05,NNE,17,2.0,5.0,37,0.00,,CLR,0.00,VWS V13.01,2013-02-15 19:58:00,
2013-02-15 14:03:00,66.5,40.8,30.04,NNE,16,0.0,0.0,39,0.00,,SCT200,0.00,VWS V13.01,2013-02-15 20:03:00,
2013-02-15 14:08:00,67.0,39.9,30.04,NNE,15,1.0,4.0,37,0.00,,SCT200,0.00,VWS V13.01,2013-02-15 20:08:00,
2013-02-15 14:13:00,67.3,40.2,30.04,NNE,13,1.0,4.0,37,0.00,,SCT200,0.00,VWS V13.01,2013-02-15 20:13:00,
2013-02-15 14:18:00,67.3,39.5,30.04,North,360,1.0,1.0,36,0.00,,SCT200,0.00,VWS V13.01,2013-02-15 20:18:00,
2013-02-15 14:23:00,67.1,39.3,30.03,North,360,0.0,4.0,36,0.00,,SCT200,0.00,VWS V13.01,2013-02-15 20:23:00,
2013-02-15 14:28:00,67.3,40.2,30.03,North,360,0.0,4.0,37,0.00,,SCT200,0.00,VWS V13.01,2013-02-15 20:28:00,
2013-02-15 14:33:00,67.7,41.2,30.03,North,355,0.0,5.0,38,0.00,,SCT200,0.00,VWS V13.01,2013-02-15 20:33:00,
2013-02-15 14:38:00,67.8,39.9,30.03,NNW,348,2.0,5.0,36,0.00,,SCT200,0.00,VWS V13.01,2013-02-15 20:38:00,
2013-02-15 14:44:00,67.9,40.0,30.03,NW,320,0.0,5.0,36,0.00,,SCT200,0.00,VWS V13.01,2013-02-15 20:44:00,
2013-02-15 14:49:00,67.2,40.1,30.03,NW,304,0.0,3.0,37,0.00,,SCT200,0.00,VWS V13.01,2013-02-15 20:49:00,
2013-02-15 14:54:00,67.2,40.1,30.02,WNW,284,0.0,3.0,37,0.00,,SCT200,0.00,VWS V13.01,2013-02-15 20:54:00,
2013-02-15 14:59:00,67.5,40.3,30.02,WNW,288,0.0,3.0,37,0.00,,SCT200,0.00,VWS V13.01,2013-02-15 20:59:00,
2013-02-15 15:04:00,67.7,41.2,30.02,WNW,287,0.0,1.0,38,0.00,,SCT200,0.00,VWS V13.01,2013-02-15 21:04:00,
2013-02-15 15:09:00,67.9,40.7,30.02,WNW,303,0.0,7.0,37,0.00,,SCT200,0.00,VWS V13.01,2013-02-15 21:09:00,
2013-02-15 15:14:00,67.7,40.5,30.02,NW,309,0.0,7.0,37,0.00,,SCT200,0.00,VWS V13.01,2013-02-15 21:14:00,
2013-02-15 15:19:00,67.7,41.2,30.02,NW,315,2.0,4.0,38,0.00,,SCT200,0.00,VWS V13.01,2013-02-15 21:19:00,
2013-02-15 15:24:00,67.4,40.2,30.02,NW,304,0.0,7.0,37,0.00,,SCT200,0.00,VWS V13.01,2013-02-15 21:24:00,
2013-02-15 15:29:00,66.7,38.9,30.02,NW,319,3.0,7.0,36,0.00,,SCT200,0.00,VWS V13.01,2013-02-15 21:29:00,
2013-02-15 15:34:00,66.4,39.4,30.02,NW,322,0.0,1.0,37,0.00,,SCT200,0.00,VWS V13.01,2013-02-15 21:34:00,
2013-02-15 15:39:00,66.5,40.8,30.02,NW,323,0.0,1.0,39,0.00,,SCT200,0.00,VWS V13.01,2013-02-15 21:39:00,
2013-02-15 15:44:00,66.6,40.2,30.02,West,266,0.0,4.0,38,0.00,,SCT200,0.00,VWS V13.01,2013-02-15 21:44:00,
2013-02-15 15:49:00,66.3,40.0,30.02,WSW,256,2.0,3.0,38,0.00,,SCT200,0.00,VWS V13.01,2013-02-15 21:49:00,
2013-02-15 15:55:00,66.0,39.0,30.02,West,263,1.0,3.0,37,0.00,,SCT200,0.00,VWS V13.01,2013-02-15 21:55:00,
2013-02-15 16:00:00,65.8,39.5,30.02,WNW,290,0.0,3.0,38,0.00,,SCT200,0.00,VWS V13.01,2013-02-15 22:00:00,
2013-02-15 16:05:00,65.7,38.7,30.02,WNW,290,0.0,3.0,37,0.00,,SCT200,0.00,VWS V13.01,2013-02-15 22:05:00,
2013-02-15 16:10:00,65.6,38.7,30.02,NW,309,0.0,4.0,37,0.00,,SCT200,0.00,VWS V13.01,2013-02-15 22:10:00,
2013-02-15 16:15:00,65.5,37.9,30.02,NW,309,0.0,4.0,36,0.00,,SCT200,0.00,VWS V13.01,2013-02-15 22:15:00,
2013-02-15 16:20:00,65.4,43.5,30.03,WNW,295,0.0,1.0,45,0.00,,SCT200,0.00,VWS V13.01,2013-02-15 22:20:00,
2013-02-15 16:25:00,64.4,44.8,30.03,WSW,251,0.0,5.0,49,0.00,,SCT200,0.00,VWS V13.01,2013-02-15 22:25:00,
2013-02-15 16:48:00,60.0,45.7,30.03,SSW,207,0.0,9.0,59,0.00,,SCT200,0.00,VWS V13.01,2013-02-15 22:48:00,
2013-02-15 16:53:00,59.6,45.3,30.03,SSW,203,0.0,9.0,59,0.00,,SCT200,0.00,VWS V13.01,2013-02-15 22:53:00,
2013-02-15 16:59:00,59.1,45.2,30.03,SSW,205,0.0,9.0,60,0.00,,SCT200,0.00,VWS V13.01,2013-02-15 22:59:00,
2013-02-15 17:04:00,59.0,45.2,30.03,SSW,209,0.0,3.0,60,0.00,,SCT200,0.00,VWS V13.01,2013-02-15 23:04:00,
2013-02-15 17:09:00,58.7,45.3,30.04,SSW,207,0.0,4.0,61,0.00,,SCT200,0.00,VWS V13.01,2013-02-15 23:09:00,
2013-02-15 17:42:00,56.7,45.1,30.04,SSW,207,0.0,2.0,65,0.00,,SCT200,0.00,VWS V13.01,2013-02-15 23:42:00,
2013-02-15 17:47:00,56.4,45.2,30.04,SSW,207,0.0,0.0,66,0.00,,SCT200,0.00,VWS V13.01,2013-02-15 23:47:00,
2013-02-15 18:27:00,53.8,44.3,30.05,SSW,207,0.0,0.0,70,0.00,,SCT200,0.00,VWS V13.01,2013-02-16 00:27:00,
2013-02-15 18:32:00,53.5,44.3,30.05,SSW,207,0.0,0.0,71,0.00,,FEW150,0.00,VWS V13.01,2013-02-16 00:32:00,
2013-02-15 18:37:00,53.2,44.4,30.05,SSW,207,0.0,0.0,72,0.00,,FEW150,0.00,VWS V13.01,2013-02-16 00:37:00,
2013-02-15 18:42:00,52.8,44.0,30.05,SSW,207,0.0,0.0,72,0.00,,FEW150,0.00,VWS V13.01,2013-02-16 00:42:00,
2013-02-15 18:47:00,52.5,44.1,30.05,SSW,207,0.0,0.0,73,0.00,,FEW150,0.00,VWS V13.01,2013-02-16 00:47:00,
2013-02-15 18:52:00,52.2,43.8,30.05,SSW,207,0.0,0.0,73,0.00,,FEW150,0.00,VWS V13.01,2013-02-16 00:52:00,
2013-02-15 18:57:00,51.9,43.9,30.05,SSW,207,0.0,0.0,74,0.00,,FEW150,0.00,VWS V13.01,2013-02-16 00:57:00,
2013-02-15 19:02:00,51.7,43.7,30.05,SSW,207,0.0,0.0,74,0.00,,FEW200,0.00,VWS V13.01,2013-02-16 01:02:00,
2013-02-15 19:07:00,51.5,43.5,30.05,SSW,207,0.0,0.0,74,0.00,,FEW200,0.00,VWS V13.01,2013-02-16 01:07:00,
2013-02-15 19:12:00,51.3,43.7,30.06,SSW,207,0.0,0.0,75,0.00,,FEW200,0.00,VWS V13.01,2013-02-16 01:12:00,
2013-02-15 19:17:00,51.0,43.4,30.05,SSW,207,0.0,0.0,75,0.00,,FEW200,0.00,VWS V13.01,2013-02-16 01:17:00,
2013-02-15 19:42:00,49.7,43.5,30.06,SSW,207,0.0,0.0,79,0.00,,FEW200,0.00,VWS V13.01,2013-02-16 01:42:00,
2013-02-15 19:48:00,49.5,43.3,30.06,SSW,207,0.0,0.0,79,0.00,,FEW200,0.00,VWS V13.01,2013-02-16 01:48:00,
2013-02-15 19:53:00,49.2,43.3,30.06,SSW,207,0.0,0.0,80,0.00,,FEW200,0.00,VWS V13.01,2013-02-16 01:53:00,
2013-02-15 19:58:00,49.1,43.2,30.06,SSW,207,0.0,0.0,80,0.00,,FEW200,0.00,VWS V13.01,2013-02-16 01:58:00,
2013-02-15 20:03:00,48.9,43.3,30.06,SSW,207,0.0,0.0,81,0.00,,CLR,0.00,VWS V13.01,2013-02-16 02:03:00,
2013-02-15 20:08:00,48.7,43.1,30.06,SSW,207,0.0,0.0,81,0.00,,CLR,0.00,VWS V13.01,2013-02-16 02:08:00,
2013-02-15 20:13:00,48.5,43.0,30.06,SSW,207,0.0,0.0,81,0.00,,CLR,0.00,VWS V13.01,2013-02-16 02:13:00,
2013-02-15 20:18:00,48.3,43.1,30.06,SSW,207,0.0,0.0,82,0.00,,CLR,0.00,VWS V13.01,2013-02-16 02:18:00,
2013-02-15 20:23:00,48.2,43.0,30.06,SSW,207,0.0,0.0,82,0.00,,CLR,0.00,VWS V13.01,2013-02-16 02:23:00,
2013-02-15 20:28:00,48.0,43.1,30.06,SSW,207,0.0,0.0,83,0.00,,CLR,0.00,VWS V13.01,2013-02-16 02:28:00,
2013-02-15 20:33:00,47.9,43.0,30.06,SSW,207,0.0,0.0,83,0.00,,CLR,0.00,VWS V13.01,2013-02-16 02:33:00,
2013-02-15 20:38:00,47.8,43.2,30.06,SSW,207,0.0,0.0,84,0.00,,CLR,0.00,VWS V13.01,2013-02-16 02:38:00,
2013-02-15 20:43:00,47.8,43.2,30.06,SSW,207,0.0,0.0,84,0.00,,CLR,0.00,VWS V13.01,2013-02-16 02:43:00,
2013-02-15 20:48:00,47.7,43.1,30.07,SSW,207,0.0,0.0,84,0.00,,CLR,0.00,VWS V13.01,2013-02-16 02:48:00,
2013-02-15 20:53:00,47.7,43.1,30.07,SSW,207,0.0,0.0,84,0.00,,CLR,0.00,VWS V13.01,2013-02-16 02:53:00,
2013-02-15 20:59:00,47.8,43.5,30.07,SSW,207,0.0,1.0,85,0.00,,CLR,0.00,VWS V13.01,2013-02-16 02:59:00,
2013-02-15 21:04:00,47.8,43.2,30.08,SSW,207,0.0,0.0,84,0.00,,CLR,0.00,VWS V13.01,2013-02-16 03:04:00,
2013-02-15 21:09:00,47.7,43.4,30.08,SSW,207,0.0,0.0,85,0.00,,CLR,0.00,VWS V13.01,2013-02-16 03:09:00,
2013-02-15 21:14:00,47.7,43.4,30.08,SSW,207,0.0,0.0,85,0.00,,CLR,0.00,VWS V13.01,2013-02-16 03:14:00,
2013-02-15 21:19:00,47.6,43.3,30.08,SSW,207,0.0,0.0,85,0.00,,CLR,0.00,VWS V13.01,2013-02-16 03:19:00,
2013-02-15 21:24:00,47.5,43.2,30.07,SSW,207,0.0,0.0,85,0.00,,CLR,0.00,VWS V13.01,2013-02-16 03:24:00,
2013-02-15 21:29:00,47.4,43.4,30.07,SSW,207,0.0,0.0,86,0.00,,CLR,0.00,VWS V13.01,2013-02-16 03:29:00,
2013-02-15 21:34:00,47.3,43.3,30.07,SSW,207,0.0,0.0,86,0.00,,CLR,0.00,VWS V13.01,2013-02-16 03:34:00,
2013-02-15 21:39:00,47.3,43.3,30.08,SSW,207,0.0,0.0,86,0.00,,CLR,0.00,VWS V13.01,2013-02-16 03:39:00,
2013-02-15 21:44:00,47.3,43.3,30.08,SSW,207,0.0,0.0,86,0.00,,CLR,0.00,VWS V13.01,2013-02-16 03:44:00,
2013-02-15 21:49:00,47.4,43.4,30.08,SSW,207,0.0,0.0,86,0.00,,CLR,0.00,VWS V13.01,2013-02-16 03:49:00,
2013-02-15 21:55:00,47.4,43.4,30.08,SSW,207,0.0,0.0,86,0.00,,CLR,0.00,VWS V13.01,2013-02-16 03:55:00,
2013-02-15 22:00:00,47.4,43.4,30.08,SSW,207,0.0,0.0,86,0.00,,CLR,0.00,VWS V13.01,2013-02-16 04:00:00,
2013-02-15 22:05:00,47.4,43.4,30.08,SSW,207,0.0,0.0,86,0.00,,CLR,0.00,VWS V13.01,2013-02-16 04:05:00,
2013-02-15 22:10:00,47.4,43.7,30.09,SSW,207,0.0,2.0,87,0.00,,CLR,0.00,VWS V13.01,2013-02-16 04:10:00,
2013-02-15 22:15:00,47.7,43.7,30.09,SSW,213,0.0,2.0,86,0.00,,CLR,0.00,VWS V13.01,2013-02-16 04:15:00,
2013-02-15 22:20:00,48.5,43.6,30.09,NW,312,0.0,5.0,83,0.00,,CLR,0.00,VWS V13.01,2013-02-16 04:20:00,
2013-02-15 22:25:00,49.2,43.0,30.08,NNW,327,2.0,10.0,79,0.00,,CLR,0.00,VWS V13.01,2013-02-16 04:25:00,
2013-02-15 22:30:00,49.9,43.0,30.09,NNW,338,3.0,10.0,77,0.00,,CLR,0.00,VWS V13.01,2013-02-16 04:30:00,
2013-02-15 22:35:00,50.4,43.1,30.09,WNW,290,2.0,11.0,76,0.00,,CLR,0.00,VWS V13.01,2013-02-16 04:35:00,
2013-02-15 22:40:00,50.6,42.6,30.09,NNW,343,1.0,11.0,74,0.00,,CLR,0.00,VWS V13.01,2013-02-16 04:40:00,
2013-02-15 22:45:00,50.8,42.8,30.08,NW,323,3.0,11.0,74,0.00,,CLR,0.00,VWS V13.01,2013-02-16 04:45:00,
2013-02-15 22:50:00,50.8,42.5,30.09,NNW,338,0.0,8.0,73,0.00,,CLR,0.00,VWS V13.01,2013-02-16 04:50:00,
2013-02-15 22:55:00,50.8,42.5,30.08,NNW,343,0.0,8.0,73,0.00,,CLR,0.00,VWS V13.01,2013-02-16 04:55:00,
2013-02-15 23:00:00,50.7,42.4,30.08,NNW,343,0.0,8.0,73,0.00,,CLR,0.00,VWS V13.01,2013-02-16 05:00:00,
2013-02-15 23:01:00,50.7,42.4,30.08,NNW,343,0.0,8.0,73,0.00,,CLR,0.00,VWS V13.01,2013-02-16 05:01:00,
2013-02-15 23:06:00,50.6,42.3,30.08,North,355,3.0,7.0,73,0.00,,FEW100,0.00,VWS V13.01,2013-02-16 05:06:00,
2013-02-15 23:11:00,50.5,42.2,30.08,North,355,0.0,7.0,73,0.00,,FEW100,0.00,VWS V13.01,2013-02-16 05:11:00,
2013-02-15 23:16:00,50.4,42.1,30.08,North,349,1.0,7.0,73,0.00,,FEW100,0.00,VWS V13.01,2013-02-16 05:16:00,
2013-02-15 23:21:00,50.3,42.0,30.08,NNW,347,0.0,5.0,73,0.00,,FEW100,0.00,VWS V13.01,2013-02-16 05:21:00,
2013-02-15 23:23:00,50.3,41.6,30.08,NNW,347,0.0,5.0,72,0.00,,FEW100,0.00,VWS V13.01,2013-02-16 05:23:00,
2013-02-15 23:28:00,50.2,41.5,30.08,NNW,343,0.0,8.0,72,0.00,,FEW100,0.00,VWS V13.01,2013-02-16 05:28:00,
2013-02-15 23:33:00,50.1,41.4,30.08,NNW,340,3.0,5.0,72,0.00,,FEW100,0.00,VWS V13.01,2013-02-16 05:33:00,
2013-02-15 23:38:00,50.1,41.4,30.08,NNW,340,0.0,5.0,72,0.00,,FEW100,0.00,VWS V13.01,2013-02-16 05:38:00,
2013-02-15 23:43:00,50.0,41.3,30.08,NNW,348,0.0,7.0,72,0.00,,FEW100,0.00,VWS V13.01,2013-02-16 05:43:00,
2013-02-15 23:48:00,49.9,41.6,30.08,NNW,342,0.0,3.0,73,0.00,,FEW100,0.00,VWS V13.01,2013-02-16 05:48:00,
2013-02-15 23:53:00,49.8,41.5,30.08,NNW,342,0.0,3.0,73,0.00,,FEW100,0.00,VWS V13.01,2013-02-16 05:53:00,
2013-02-15 23:59:00,49.7,41.4,30.08,NNW,344,0.0,5.0,73,0.00,,FEW100,0.00,VWS V13.01,2013-02-16 05:59:00,